www.pogodaiklimat.ru

Погода и климат >> Архив погоды >> Россия >> Амурская область >> Благовещенск


АРХИВ ПОГОДЫ в Благовещенске

Время (UTC), дата Ветер
(напр.,м/с)
 
Видим.   Явления Облачность Т
(С)
Тd
(С)
f
(%)
Тe
(С)
Тes
(С)
Комфортность P
(гПа)
Po
(гПа)
Тmin
(С)
Tmax
(С)
R
(мм)
R24
(мм)
S
(см)
18 19.05 СВ 3 н/о слаб. ливневой дождь 10/10 600 м
[Cb cap]
+9.1 +8.6 97 +6 +6 по сезону 998.8 978.7
21 19.05 С 4
{10}
10 км слаб. ливневой дождь 10/10 600 м
[Cb cap]
+8.4 +7.8 96 +5 +5 холодно 995.4 975.3
00 20.05 СВ 7-11
{13}
10 км слаб. ливневой дождь 10/10 600 м
[Cb cap]
+8.4 +7.9 97 +4 +4 очень
холодно
991.6 971.6 +8.3 11
03 20.05 СВ 5
{13}
2000 м морось {ливн. осадки} 10/10 600 м
[St]
+8.9 +9.0 100 +5 +5 очень
холодно
989.2 969.3 +8.3
06 20.05 СВ 4 4000 м слаб. ливневой дождь {морось} 10/10 600 м
[Cb cap]
+9.9 +9.4 97 +7 +7 очень
холодно
986.7 966.9
09 20.05 СЗ 1 4000 м слаб. ливневой дождь 10/10 600 м
[Cb cap]
+10.4 +10.1 98 +10 +10 очень
холодно
985.6 965.8
12 20.05 ЮЗ 2 н/о {ливн. осадки} 10/10 600 м
[Cb cap]
+10.0 +9.7 98 +8 +8 очень
холодно
985.7 965.9 +10.5 19
15 20.05 ЮЗ 2 н/о 10/10 1000 м
[Cb cap]
+9.1 +8.6 97 +7 +7 холодно 985.8 966.0
18 20.05 В 1 н/о 10/0
[Ac As]
+8.3 +8.1 99 +7 +7 по сезону 986.3 966.4
21 20.05 В 1 500 м туман 10/6 600 м
[Cb cap As op]
+8.4 +8.2 99 +7 +8 прохладно 986.7 966.8
00 21.05 В 1 10 км ливневой дождь {туман} 10/10 600 м
[Cb cap]
+8.7 +8.5 99 +8 +8 прохладно 987.5 967.6 +8.2 3
03 21.05 С 3 20 км слаб. ливневой дождь {гроза} 9/9 600 м
[Cb cap]
+12.6 +10.5 87 +11 +12 холодно 988.2 968.5
06 21.05 С 4 50 км {гроза, ливн. осадки} 10/6 600 м
[Cb cap Ci fib]
+14.0 +9.4 74 +13 +15 холодно 988.7 969.1
09 21.05 С 4 50 км слаб. ливневой дождь 9/9 600 м
[Cb cap]
+13.3 +10.1 81 +12 +12 холодно 989.9 970.3
12 21.05 СЗ 4-10
{12}
н/о слаб. ливневой дождь 10/10 600 м
[Cb cap]
+7.8 +7.4 97 +4 +4 очень
холодно
993.2 973.1 +15.1 12
15 21.05 СЗ 4
{10}
н/о слаб. ливневой дождь 10/10 600 м
[Cb cap]
+6.6 +6.3 98 +3 +3 очень
холодно
993.6 973.4
18 21.05 СЗ 3 н/о {ливн. осадки} 10/10 600 м
[Cb cap]
+6.3 +6.3 100 +3 +3 холодно 993.4 973.2
21 21.05 СЗ 2 20 км 10/10 600 м
[Cb cap]
+6.0 +6.1 100 +3 +3 очень
холодно
994.0 973.8
00 22.05 СЗ 2 50 км слаб. ливневой дождь 10/10 600 м
[Cb cap]
+8.1 +6.9 92 +6 +6 холодно 994.7 974.6 +6.0 4
03 22.05 СЗ 3 50 км {ливн. осадки} 10/10 600 м
[Cb cap]
+9.8 +7.1 83 +8 +8 очень
холодно
995.6 975.6
06 22.05 СЗ 5
{10}
50 км {ливн. осадки} 10/10 600 м
[Cb cap]
+11.6 +7.2 74 +9 +9 очень
холодно
996.3 976.4
09 22.05 СЗ 3
{10}
50 км 9/6 600 м
[Cb cap Ac As Ci ing]
+11.2 +7.0 75 +9 +10 очень
холодно
997.8 977.8
12 22.05 З 2 н/о 3/0
[Ac As]
+8.8 +6.8 87 +7 +7 очень
холодно
999.7 979.6 +12.2 0.0
15 22.05 З 3 н/о ясно +6.1 +5.8 98 +3 +3 очень
холодно
1000.8 980.5
18 22.05 З 3 н/о дымка ясно +4.9 +4.5 97 +1 +1 очень
холодно
1001.6 981.1
21 22.05 штиль 0 50 км ясно +6.0 +5.0 93 +5 +6 холодно 1002.0 981.6
00 23.05 Ю 1 50 км 1/0
[Ac und]
+14.0 +4.5 53 +14 +24 по сезону 1001.3 981.5
03 23.05 Ю 3 50 км 10/0
[Ac As]
+19.7 +7.6 45 +21 +25 комфорт 999.6 980.2
06 23.05 ЮЗ 5
{10}
50 км 10/0
[Ci sp]
+23.9 +6.7 33 +24 +29 комфорт 997.0 977.9
09 23.05 ЮЗ 5
{12}
50 км 4/0
[Ci sp]
+23.8 +6.8 34 +24 +25 комфорт 994.9 975.8
12 23.05 ЮЗ 3 н/о ясно +20.2 +8.8 48 +22 +22 комфорт 996.8 977.5 +24.7
15 23.05 Ю 1 н/о 9/0
[Ac trans]
+16.2 +10.4 68 +17 +17 тепло 997.5 978.0
18 23.05 В 1 н/о 10/0
[Ac trans]
+14.1 +11.3 83 +14 +14 тепло 997.4 977.7
21 23.05 Ю 3 20 км 10/0
[Ac trans Ci sp]
+14.5 +10.6 77 +14 +14 тепло 996.9 977.2
00 24.05 Ю 2 20 км 8/5 600 м
[Cb cap Ac trans]
+17.7 +11.5 67 +18 +21 тепло 995.2 975.7 +13.6
03 24.05 Ю 2 20 км 9/3 600 м
[Cu hum Ac As]
+22.0 +11.4 51 +24 +29 комфорт 993.4 974.3
06 24.05 ЮВ 2 20 км 3/0
[Ci fib]
+26.0 +11.7 41 +27 +39 жарко 991.4 972.6
09 24.05 В 2 20 км 10/0
[Ci]
+26.7 +12.0 40 +28 +30 жарко 991.0 972.2
12 24.05 СВ 3 н/о 10/4 1000 м
[Cb cap Ac As]
+22.1 +13.4 58 +25 +25 комфорт 993.8 974.8 +27.4
15 24.05 С 4
{10}
н/о 10/6 1000 м
[Cb cap Ac As]
+20.1 +13.0 64 +22 +22 комфорт 995.2 975.9
18 24.05 С 6-15
{15}
н/о {ливн. осадки} 3/0
[Ac As]
+14.6 +9.1 70 +13 +13 тепло 997.7 978.1
21 24.05 СЗ 4
{15}
50 км 3/0
[Ac As]
+11.8 +7.1 73 +10 +10 по сезону 1000.8 980.9
00 25.05 С 4-11
{13}
50 км 6/0
[Ac As]
+13.8 +5.4 57 +12 +16 по сезону 1002.2 982.4 +11.7 0.3
03 25.05 СЗ 5
{12}
50 км 10/0
[Ac und]
+12.4 +5.6 63 +10 +13 холодно 1003.9 983.9
06 25.05 С 3
{10}
50 км 10/6 1000 м
[Sc Ac und]
+13.8 +5.1 56 +13 +14 очень
холодно
1005.0 985.1
09 25.05 З 3 4000 м слаб. ливневой дождь 10/8 600 м
[Cb cap Ac und]
+9.9 +9.3 96 +8 +8 очень
холодно
1007.1 986.9
12 25.05 З 3 н/о {ливн. осадки, дождь} 10/4 1000 м
[Sc diur, vesp Ac und]
+9.1 +8.2 94 +7 +7 очень
холодно
1008.2 987.9 +14.4 3
15 25.05 СЗ 4 н/о 10/0
[Ac und]
+9.8 +7.9 88 +7 +7 холодно 1008.4 988.1
18 25.05 З 4 н/о 8/0
[Ac trans]
+10.0 +6.5 79 +7 +7 прохладно 1010.5 990.2
21 25.05 СЗ 3 50 км 8/0
[Ac As Ci fib]
+9.0 +5.4 78 +7 +7 прохладно 1012.2 991.8
00 26.05 С 2 50 км 9/0
[Ci]
+15.2 +5.9 54 +15 +23 по сезону 1013.4 993.4 +8.8
03 26.05 СЗ 4 50 км 10/0
[Cs]
+18.1 +5.1 42 +18 +27 по сезону 1013.5 993.7
06 26.05 СЗ 2 50 км 9/4 1000 м
[Cu hum Cs]
+20.0 +1.4 29 +21 +27 комфорт 1012.3 992.6
09 26.05 ЮВ 1 50 км 10/3 1000 м
[Cu hum As trans]
+18.9 +2.3 33 +20 +21 тепло 1011.3 991.6
12 26.05 СЗ 2 н/о 10/0
[Cs]
+15.1 +5.9 54 +15 +15 по сезону 1011.9 991.9 +20.8
15 26.05 С 4 н/о 10/0
[As op]
+13.7 +0.5 40 +13 +13 по сезону 1010.9 990.9

 

Местоположение метеостанции Благовещенск (Амурская область, Россия): широта 50.28 долгота 127.40 высота над уровнем моря 169 м.

В архиве по умолчанию представлена погода в Благовещенске за последнюю неделю. Архивные данные за месяц целиком и за предыдущие месяцы, начиная с января 2011 года, Вы можете получить, выбрав интересующий диапазон дат из раскрывающегося списка и нажав кнопку "Ввод!".


*Определитесь, кто Вы:
робот инопланетянин человек

Внимание! Время в таблицах - всемирное. Для получения местного времени необходимо прибавить поправку, которая равна 9 ч.

Смотрите также архив погоды в соседних городах и на ближайших метеорологических станциях:

Погода в Айгуне (Хэйлунцзян, Китай) (5 км)
Погода в Сергеевке (Амурская область, Россия) (56 км)
Погода в Константиновке (Амурская область, Россия) (82 км)
Погода в Суньу (Хэйлунцзян, Китай) (95 км)
Погода в Белогорске (Амурская область, Россия) (100 км)
Погода в Поярково (Амурская область, Россия) (113 км)
Погода в Екатеринославке (Амурская область, Россия) (114 км)
Погода в Свободном (Амурская область, Россия) (139 км)
Погода в Завитае (Амурская область, Россия) (143 км)
Погода в Братолюбовке (Амурская область, Россия) (145 км)

Пояснения к столбцам:

Ветер - указаны скорость ветра в м/с - средняя за 10 мин, порывы в срок и между сроками (в фигурных скобках) и направление, откуда дует ветер: С - северный, СВ - северо-восточный, В - восточный, ЮВ - юго-восточный, Ю - южный, ЮЗ - юго-западный, З - западный, СЗ - северо-западный.
Видимость - горизонтальная дальность видимости в метрах или километрах. При видимости от 1 до 10 км при отсутствии осадков обычно наблюдается дымка, при ухудшении видимости до 1 км и менее - туман. В сухую погоду видимость может ухудшаться дымом, пылью или мглою.
Явления - указаны атмосферные явления, наблюдавшиеся в срок или в последний час перед сроком; фигурными скобками обозначены явления, наблюдавшиеся между сроками (за 1-3 часа до срока); квадратными скобками обозначены град или гололедные отложения с указанием их диаметра в мм.
Облачность - указаны через наклонную черту общая и нижняя облачность в баллах и высота нижней границы облаков в метрах; квадратными скобками обозначены формы облаков: Ci - перистые, Cs - перисто-слоистые, Cc - перисто-кучевые, Ac - высококучевые, As - высокослоистые, Sc - слоисто-кучевые, Ns - слоисто-дождевые, Cu - кучевые, Cb - кучево-дождевые. Подробнее классификацию облаков см. в Атласе облаков (PDF).
T - Температура воздуха - температура, измеренная на высоте 2 м над землей.
Td - Температура точки росы - температура, при понижении до которой содержащийся в воздухе водяной пар достигнет насыщения.
f - Относительная влажность воздуха - влажноcть воздуха, измеренная на высоте 2 м над землей.
Te - Эффективная температура - температура, которую ощущает одетый по сезону человек в тени. Характеристика душности погоды. При расчете учитывается влияние влажности воздуха и скорости ветра на теплоощущения человека.
Tes - Эффективная температура на солнце - температура, которую ощущает человек, с поправкой на солнечный нагрев. Характеристика знойности погоды. Зависит от высоты солнца над горизонтом, облачности и скорости ветра. Ночью, в пасмурную погоду, а также при ветре 12 м/с и более поправка равна нулю.
P - Атмосферное давление - приведенное к уровню моря атмосферное давление.
Po - Атмосферное давление - измеренное на уровне метеостанции атмосферное давление.
Tmin - Минимальная температура - минимум температуры воздуха на высоте 2 м над землей.
Tmax - Максимальная температура - максимум температуры воздуха на высоте 2 м над землей.
R - Количество осадков - Количество выпавших осадков за период времени, мм. При наведении курсора мыши на число - период времени, за который выпало указанное количество осадков.
R24 - Количество осадков - Количество выпавших осадков за 24 часа, мм.
S - Снежный покров - Высота снежного покрова, см. При наведении курсора мыши на число - состояние снежного покрова и степень покрытия местности в баллах.